Location: Township of Marena
(38.1747°N, 99.6798°W)
Time: 03:28:20
(UTC+00:00)

Meteor 1-31 Rocket - Pass Details

Date: 26 October 2020
Orbit: 521 x 546 km, 97.6° (Epoch: 27 November)

Event Time Altitude Azimuth Distance (km) Brightness Sun altitude
Rises 10:59:00 0° 20° (NNE) 2,720 6.7 -24.2°
Reaches altitude 10° 11:01:14 10° 28° (NNE) 1,823 5.8 -23.7°
Maximum altitude 11:04:57 39° 98° (E) 831 4.2 -23.0°
Drops below altitude 10° 11:08:37 10° 168° (SSE) 1,805 5.6 -22.3°
Sets 11:10:49 0° 176° (S) 2,689 6.4 -21.9°
